Weather reports worldwide

Advertisment
Pershore, United Kingdom (3529): temperature & dewpoint: 18.08.2017 00:00:00 - 24.08.2017 00:00:00 (BST)Pershore, United Kingdom (3529): temperature -20cm & temperature -100cm: 18.08.2017 00:00:00 - 24.08.2017 00:00:00 (BST)Pershore, United Kingdom (3529): wind speed & gusts: 18.08.2017 00:00:00 - 24.08.2017 00:00:00 (BST)Pershore, United Kingdom (3529): wind direction: 18.08.2017 00:00:00 - 24.08.2017 00:00:00 (BST)Pershore, United Kingdom (3529): reduced air pressure: 18.08.2017 00:00:00 - 24.08.2017 00:00:00 (BST)Pershore, United Kingdom (3529): visibility: 18.08.2017 00:00:00 - 24.08.2017 00:00:00 (BST)Pershore, United Kingdom (3529): precipitation: 18.08.2017 00:00:00 - 24.08.2017 00:00:00 (BST)
Date & Time tt [°C] td [°C] tt -20cm [°C] tt -100cm [°C] ff [km/h] ff [kn] fx [km/h] fx [kn] dd ppp [hPa] vv [km] rr [mm]
24.08.2017 00:00:00 - - - - - - - - - - - 0,0
23.08.2017 23:00:00 14,0 11,2 - - 5 3 - - SW 1015,7 50 0,0
23.08.2017 22:00:00 15,7 11,5 - - 5 3 - - S 1015,3 40 0,0
23.08.2017 21:00:00 16,2 11,4 - - 8 4 - - SW 1014,9 45 0,0
23.08.2017 20:00:00 18,1 12,7 - - 9 5 - - SW 1014,4 50 0,0
23.08.2017 19:00:00 19,2 12,4 - - 16 9 - - SW 1014,1 40 0,0
23.08.2017 18:00:00 20,6 12,2 - - 13 7 - - WSW 1013,7 35 0,0
23.08.2017 17:00:00 21,1 12,9 - - 15 8 - - SW 1013,6 35 0,0
23.08.2017 16:00:00 20,6 12,2 - - 9 5 - - WSW 1013,8 40 0,0
23.08.2017 15:00:00 20,7 12,7 - - 15 8 - - W 1013,7 45 0,0
23.08.2017 14:00:00 20,1 13,2 - - 15 8 - - WSW 1013,7 50 0,0
23.08.2017 13:00:00 20,3 13,4 - - 13 7 - - W 1013,3 45 0,0
23.08.2017 12:00:00 19,3 14,5 - - 15 8 - - W 1013,3 23 0,0
23.08.2017 11:00:00 18,7 15,3 - - 15 8 - - W 1013,2 30 0,0
23.08.2017 10:00:00 18,4 16,9 18,0 16,7 11 6 - - SW 1012,7 10 0,0
23.08.2017 09:00:00 17,7 17,0 - - 9 5 - - SSW 1012,4 6 0,0
23.08.2017 08:00:00 17,3 16,5 - - 5 3 - - SW 1012,1 4,2 0,0
23.08.2017 07:00:00 17,3 16,1 - - 9 5 - - SE 1012,0 5 0,0
23.08.2017 06:00:00 17,2 16,0 - - 9 5 - - SE 1012,1 5 0,0
23.08.2017 05:00:00 16,3 15,4 - - 5 3 - - E 1012,4 5 0,0
23.08.2017 04:00:00 16,4 15,2 - - 11 6 - - E 1012,7 5 0,0
23.08.2017 03:00:00 16,9 15,7 - - 5 3 - - ENE 1013,1 5 0,0
23.08.2017 02:00:00 17,1 15,7 - - 5 3 - - ENE 1013,8 6 0,0
23.08.2017 01:00:00 17,4 15,9 - - 8 4 - - E 1014,2 7 0,0
23.08.2017 00:00:00 18,3 16,0 - - 11 6 - - ESE 1014,2 10 0,0
22.08.2017 23:00:00 18,8 16,7 - - 11 6 - - ESE 1014,8 16 0,0
22.08.2017 22:00:00 18,8 17,0 - - 9 5 - - E 1014,8 22 0,0
22.08.2017 21:00:00 19,0 16,9 - - 9 5 - - ESE 1015,0 25 0,0
22.08.2017 20:00:00 20,3 17,7 - - 13 7 - - ESE 1015,3 40 0,2
22.08.2017 19:00:00 21,7 17,1 - - 15 8 - - ESE 1015,7 45 0,0
22.08.2017 18:00:00 22,6 16,8 - - 15 8 - - SE 1016,2 50 0,0
22.08.2017 17:00:00 22,9 16,6 - - 15 8 - - SE 1016,4 45 0,0
22.08.2017 16:00:00 22,8 17,2 - - 13 7 - - SSE 1017,2 45 0,0
22.08.2017 15:00:00 22,3 16,6 - - 15 8 - - SSE 1017,8 45 0,0
22.08.2017 14:00:00 22,7 16,8 - - 15 8 - - SSE 1018,3 45 0,0
22.08.2017 13:00:00 22,2 16,3 - - 18 10 - - SE 1018,7 40 0,0
22.08.2017 12:00:00 22,8 17,3 - - 15 8 - - SSE 1019,4 30 0,0
22.08.2017 11:00:00 21,2 18,4 - - 11 6 - - SSE 1019,8 23 0,0
22.08.2017 10:00:00 19,7 18,2 17,5 16,7 9 5 - - SE 1019,8 20 0,0
22.08.2017 09:00:00 17,4 17,4 - - 0 0 - - N 1020,1 7 0,0
22.08.2017 08:00:00 16,5 16,5 - - 2 1 - - NNE 1020,0 5 0,0
22.08.2017 07:00:00 15,5 15,4 - - 4 2 - - NE 1020,1 4,5 0,0
22.08.2017 06:00:00 13,8 13,7 - - 2 1 - - NNW 1020,0 1,6 0,0
22.08.2017 05:00:00 14,1 14,0 - - 4 2 - - NNE 1019,7 1,8 0,0
22.08.2017 04:00:00 14,0 13,7 - - 4 2 - - NNW 1020,2 0,4 0,0
22.08.2017 03:00:00 14,7 14,2 - - 4 2 - - ESE 1020,3 3,8 0,0
22.08.2017 02:00:00 16,1 15,6 - - 0 0 - - N 1020,4 0,6 0,0
22.08.2017 01:00:00 17,3 16,7 - - 2 1 - - NNE 1020,4 7 0,0
22.08.2017 00:00:00 17,7 17,0 - - 2 1 - - NW 1020,7 9 0,0
21.08.2017 23:00:00 18,0 17,0 - - 2 1 - - NNE 1020,9 11 0,0
21.08.2017 22:00:00 18,4 17,0 - - 8 4 - - E 1020,9 15 0,0
21.08.2017 21:00:00 18,8 17,1 - - 5 3 - - NNE 1020,8 17 0,0
21.08.2017 20:00:00 19,4 17,3 - - 2 1 - - NE 1020,5 22 0,0
21.08.2017 19:00:00 19,5 17,2 - - 5 3 - - ENE 1020,4 26 0,0
21.08.2017 18:00:00 20,1 17,0 - - 5 3 - - E 1020,5 30 0,0
21.08.2017 17:00:00 19,8 16,5 - - 9 5 - - ESE 1020,7 40 0,0
21.08.2017 16:00:00 20,0 16,3 - - 5 3 - - SW 1020,9 45 0,0
21.08.2017 15:00:00 20,1 16,5 - - 5 3 - - SE 1021,0 40 0,0
21.08.2017 14:00:00 18,2 15,3 - - 4 2 - - SE 1021,5 35 0,0
21.08.2017 13:00:00 18,0 15,1 - - 8 4 - - SE 1021,5 50 0,0
21.08.2017 12:00:00 17,8 15,1 - - 5 3 - - ESE 1021,8 45 0,0
21.08.2017 11:00:00 16,9 14,3 - - 4 2 - - ESE 1022,0 50 0,0
21.08.2017 10:00:00 16,0 14,0 17,0 16,7 5 3 - - ESE 1021,9 45 0,0
21.08.2017 09:00:00 15,4 14,1 - - 8 4 - - E 1021,9 45 0,0
21.08.2017 08:00:00 14,6 14,0 - - 8 4 - - E 1021,5 35 0,0
21.08.2017 07:00:00 14,2 13,8 - - 5 3 - - E 1021,1 20 0,0
21.08.2017 06:00:00 14,0 13,6 - - 8 4 - - E 1021,0 16 0,0
21.08.2017 05:00:00 14,0 13,5 - - 5 3 - - E 1021,0 20 0,0
21.08.2017 04:00:00 14,1 13,5 - - 8 4 - - E 1021,0 35 0,0
21.08.2017 03:00:00 14,1 13,4 - - 8 4 - - E 1021,2 50 0,0
21.08.2017 02:00:00 14,0 13,4 - - 5 3 - - ESE 1021,3 40 0,0
21.08.2017 01:00:00 14,0 13,3 - - 9 5 - - ESE 1021,2 50 0,0
21.08.2017 00:00:00 13,8 13,3 - - 9 5 - - ESE 1021,4 50 0,2
20.08.2017 23:00:00 13,8 13,4 - - 11 6 - - ESE 1022,2 8 1,8
20.08.2017 22:00:00 13,9 13,5 - - 11 6 - - ESE 1022,2 10 1,0
20.08.2017 21:00:00 14,1 13,6 - - 11 6 - - SE 1022,8 10 1,0
20.08.2017 20:00:00 14,4 13,8 - - 11 6 - - SE 1022,7 9 2,4
20.08.2017 19:00:00 15,2 13,6 - - 8 4 - - SSE 1022,7 7 1,0
20.08.2017 18:00:00 16,0 12,2 - - 9 5 - - SW 1022,8 12 0,2
20.08.2017 17:00:00 17,8 10,6 - - 15 8 - - S 1022,0 45 0,0
20.08.2017 16:00:00 18,2 11,1 - - 15 8 - - SW 1023,1 35 0,0
20.08.2017 15:00:00 19,3 9,9 - - 13 7 - - SW 1023,2 30 0,0
20.08.2017 14:00:00 19,7 9,8 - - 13 7 - - SSW 1023,4 40 0,0
20.08.2017 13:00:00 18,2 9,6 - - 8 4 - - WSW 1023,9 29 0,0
20.08.2017 12:00:00 18,0 9,8 - - 9 5 - - SW 1024,0 30 0,0
20.08.2017 11:00:00 16,5 10,3 - - 11 6 - - SW 1024,0 30 0,0
20.08.2017 10:00:00 15,8 11,9 17,0 16,7 11 6 - - WSW 1024,0 23 0,0
20.08.2017 09:00:00 13,6 11,0 - - 11 6 - - SW 1023,8 30 0,0
20.08.2017 08:00:00 11,1 10,2 - - 5 3 - - SSW 1023,5 30 0,0
20.08.2017 07:00:00 10,0 9,6 - - 4 2 - - S 1022,8 29 0,0
20.08.2017 06:00:00 8,4 7,8 - - 5 3 - - SW 1022,5 18 0,0
20.08.2017 05:00:00 9,0 7,8 - - 2 1 - - SSE 1022,3 30 0,0
20.08.2017 04:00:00 10,2 8,8 - - 4 2 - - S 1022,2 35 0,0
20.08.2017 03:00:00 10,7 8,7 - - 5 3 - - S 1021,9 30 0,0
20.08.2017 02:00:00 11,5 9,1 - - 9 5 - - SW 1021,8 29 0,0
20.08.2017 01:00:00 12,6 9,5 - - 11 6 - - SW 1021,6 30 0,0
20.08.2017 00:00:00 14,4 9,4 - - 15 8 - - WSW 1021,6 30 0,0
19.08.2017 23:00:00 14,8 9,5 - - 11 6 - - WSW 1021,2 35 0,0
19.08.2017 22:00:00 14,8 9,3 - - 11 6 - - WSW 1020,9 40 0,0
19.08.2017 21:00:00 15,4 8,9 - - 16 9 - - W 1020,4 35 0,0
19.08.2017 20:00:00 16,0 8,8 - - 16 9 - - W 1019,7 50 0,0
19.08.2017 19:00:00 16,6 8,5 - - 22 12 - - W 1019,2 40 0,0
19.08.2017 18:00:00 17,0 9,0 - - 15 8 - - WSW 1019,0 45 0,0
19.08.2017 17:00:00 17,9 8,1 - - 21 11 - - W 1018,7 45 0,0
19.08.2017 16:00:00 17,9 8,3 - - 21 11 - - W 1018,3 30 0,0
19.08.2017 15:00:00 17,6 8,6 - - 21 11 - - W 1018,1 40 0,0
19.08.2017 14:00:00 18,0 10,0 - - 18 10 46 25 W 1017,8 16 0,0
19.08.2017 13:00:00 17,0 9,6 - - 22 12 - - W 1017,5 30 0,0
19.08.2017 12:00:00 17,2 10,4 - - 21 11 - - WSW 1017,2 30 0,0
19.08.2017 11:00:00 16,7 9,9 - - 22 12 - - W 1016,9 40 0,0
19.08.2017 10:00:00 16,1 11,0 17,5 16,7 15 8 - - WSW 1016,9 27 0,0
19.08.2017 09:00:00 14,6 11,1 - - 13 7 - - SW 1016,5 29 0,0
19.08.2017 08:00:00 13,3 11,2 - - 11 6 - - SW 1016,2 30 0,0
19.08.2017 07:00:00 11,9 10,2 - - 13 7 - - SW 1015,4 25 0,0
19.08.2017 06:00:00 12,0 10,1 - - 11 6 - - WSW 1015,1 27 0,0
19.08.2017 05:00:00 11,8 10,4 - - 11 6 - - WSW 1014,4 40 0,0
19.08.2017 04:00:00 11,6 10,5 - - 9 5 - - WSW 1013,8 35 0,0
19.08.2017 03:00:00 12,5 11,3 - - 11 6 - - W 1013,3 50 0,0
19.08.2017 02:00:00 11,5 10,6 - - 9 5 - - SSW 1012,7 45 0,0
19.08.2017 01:00:00 11,3 10,1 - - 8 4 - - SW 1012,6 40 0,0
19.08.2017 00:00:00 12,4 11,4 - - 13 7 - - WSW 1011,8 45 0,0
18.08.2017 23:00:00 12,6 11,8 - - 13 7 - - WSW 1010,9 45 1,0
18.08.2017 22:00:00 12,3 11,5 - - 5 3 - - W 1010,0 4,2 3,4
18.08.2017 21:00:00 12,8 11,7 - - 11 6 - - SSW 1009,4 16 2,2
18.08.2017 20:00:00 13,1 11,2 - - 9 5 - - SSW 1010,4 10 1,0
18.08.2017 19:00:00 15,1 8,8 - - 22 12 - - SW 1010,6 30 0,0
18.08.2017 18:00:00 16,7 8,8 - - 21 11 - - SW 1010,1 35 0,0
18.08.2017 17:00:00 17,1 9,2 - - 18 10 - - WSW 1010,0 45 0,0
18.08.2017 16:00:00 17,6 7,2 - - 21 11 - - W 1010,2 45 0,0
18.08.2017 15:00:00 17,1 9,9 - - 15 8 - - WSW 1010,0 50 0,0
18.08.2017 14:00:00 16,8 12,1 - - 15 8 - - SW 1010,1 40 0,6
18.08.2017 13:00:00 16,8 8,5 - - 16 9 - - SW 1009,7 30 0,0
18.08.2017 12:00:00 18,0 7,7 - - 21 11 - - SW 1009,9 35 0,0
18.08.2017 11:00:00 18,2 10,1 - - 18 10 - - SW 1010,1 35 0,0
18.08.2017 10:00:00 16,2 9,5 18,0 16,7 16 9 - - WSW 1010,4 35 0,0
18.08.2017 09:00:00 15,5 8,9 - - 16 9 - - WSW 1010,3 35 0,0
18.08.2017 08:00:00 14,7 10,1 - - 9 5 - - WSW 1009,8 30 0,0
18.08.2017 07:00:00 14,0 11,9 - - 11 6 - - SSW 1009,5 25 0,0
18.08.2017 06:00:00 14,2 12,6 - - 11 6 - - SSW 1008,6 20 0,0
18.08.2017 05:00:00 14,3 12,8 - - 15 8 - - S 1008,3 26 0,0
18.08.2017 04:00:00 14,1 12,4 - - 18 10 - - SSW 1008,8 35 0,0
18.08.2017 03:00:00 14,1 12,3 - - 18 10 - - S 1008,9 17 0,0
18.08.2017 02:00:00 15,1 13,9 - - 13 7 - - S 1009,2 16 0,2
18.08.2017 01:00:00 15,8 13,7 - - 13 7 - - S 1009,7 14 0,0
18.08.2017 00:00:00 15,1 12,5 - - 13 7 - - SSW 1010,1 12 0,0

tt = temperature
td = dewpoint
tt -20cm = temperature -20cm
tt -100cm = temperature -100cm
ff = wind speed
fx = gusts
dd = wind direction
ppp = reduced air pressure
vv = visibility
rr = precipitation

Next stations